Temp
-13 -13 -13 -12 -12 -12 -12 -12 -12 -11 -11 -11 -11 -11 -12 -12 -12 -12 -12 -12 -12 -12 -12 -12 -11 -11 -11 -11 -11 -12 -12 -12 -12 -12 -12 -12 -12 -12 -12 -12 -12 -12 -12 -11 -11 -11 -11 -12 -12 -12 -12 -12 -12 -12 -12 -12 -12 -12 -12 -12 -12 -12 -12
-13 -12 -13 -13 -12 -12 -12 -12 -12 -12 -12 -12 -12 -12 -12 -12 -12 -12 -12 -12 -12 -12 -12 -12 -12 -12 -12 -12 -12 -12 -12 -12 -12 -12 -12 -12 -12 -12 -12 -12 -12 -12 -12 -12 -12 -11 -11 -11 -11 -12 -12 -12 -12 -12 -12 -12 -12 -12 -12 -12 -12 -12 -12
-13 -13 -13 -13 -12 -12 -12 -12 -12 -12 -12 -12 -12 -12 -12 -12 -12 -12 -12 -12 -12 -12 -12 -12 -12 -12 -12 -12 -12 -12 -12 -12 -12 -12 -12 -12 -12 -12 -12 -12 -12 -12 -12 -12 -12 -12 -12 -12 -11 -11 -12 -12 -12 -12 -12 -12 -12 -12 -12 -12 -12 -12 -12
-13 -13 -13 -13 -12 -12 -12 -12 -12 -12 -12 -12 -12 -12 -12 -12 -12 -12 -12 -12 -12 -12 -12 -12 -12 -12 -12 -12 -12 -12 -12 -12 -12 -12 -12 -12 -12 -12 -12 -12 -12 -12 -12 -12 -12 -12 -12 -12 -12 -12 -12 -12 -12 -12 -12 -12 -12 -12 -12 -12 -12 -12 -12
-13 -13 -13 -13 -12 -12 -12 -12 -12 -12 -12 -12 -12 -12 -12 -12 -12 -12 -12 -12 -12 -12 -12 -12 -12 -12 -12 -12 -12 -12 -12 -12 -12 -12 -12 -12 -12 -12 -12 -12 -12 -12 -12 -12 -12 -12 -12 -12 -12 -12 -12 -12 -12 -12 -12 -12 -12 -12 -12 -12 -12 -12 -12
-13 -13 -13 -13 -12 -12 -12 -12 -12 -12 -12 -12 -12 -12 -12 -12 -12 -12 -12 -12 -12 -12 -12 -12 -12 -12 -12 -12 -12 -12 -12 -12 -12 -12 -12 -12 -12 -12 -12 -12 -12 -12 -12 -12 -12 -12 -12 -12 -12 -12 -12 -12 -12 -12 -12 -12 -12 -12 -12 -12 -12 -12 -12
-13 -13 -13 -13 -12 -12 -12 -12 -12 -12 -13 -13 -13 -13 -13 -13 -13 -13 -13 -13 -13 -13 -13 -13 -13 -13 -13 -13 -13 -13 -13 -13 -13 -13 -13 -13 -13 -13 -13 -13 -13 -12 -12 -12 -12 -12 -12 -12 -12 -12 -12 -12 -12 -12 -12 -12 -12 -12 -12 -12 -12 -12 -12
-13 -13 -13 -13 -13 -13 -13 -13 -13 -13 -13 -13 -13 -13 -13 -13 -13 -13 -13 -13 -13 -13 -13 -13 -13 -13 -13 -13 -13 -13 -13 -13 -13 -13 -13 -13 -13 -13 -13 -13 -13 -13 -13 -13 -13 -13 -12 -12 -12 -12 -12 -12 -12 -12 -12 -12 -12 -12 -12 -13 -13 -12 -12
-13 -13 -13 -13 -13 -13 -13 -13 -13 -13 -13 -13 -13 -13 -13 -13 -13 -13 -13 -13 -13 -13 -13 -13 -13 -13 -13 -13 -13 -13 -13 -13 -13 -13 -13 -13 -13 -13 -13 -13 -13 -13 -13 -13 -13 -13 -13 -13 -13 -12 -12 -12 -12 -12 -12 -12 -12 -13 -13 -13 -13 -13 -13
-13 -13 -13 -13 -13 -13 -13 -13 -13 -13 -13 -13 -13 -13 -13 -13 -13 -13 -13 -13 -13 -13 -13 -13 -13 -13 -13 -13 -13 -13 -13 -13 -13 -13 -13 -13 -13 -13 -13 -13 -13 -13 -13 -13 -13 -13 -13 -13 -13 -13 -13 -12 -12 -12 -12 -12 -12 -13 -13 -13 -13 -13 -13
-14 -14 -14 -14 -14 -14 -14 -13 -13 -13 -13 -13 -13 -13 -14 -14 -14 -14 -14 -13 -13 -13 -13 -13 -13 -13 -13 -13 -13 -13 -13 -13 -13 -13 -13 -13 -13 -13 -13 -13 -13 -13 -13 -13 -13 -13 -13 -13 -13 -13 -13 -13 -13 -12 -12 -12 -12 -12 -13 -13 -13 -13 -13
-14 -14 -14 -14 -14 -14 -14 -14 -14 -14 -14 -14 -14 -14 -14 -14 -14 -14 -14 -14 -13 -13 -13 -13 -13 -13 -13 -13 -13 -13 -13 -13 -13 -13 -13 -13 -13 -13 -13 -13 -13 -13 -13 -13 -13 -13 -13 -13 -13 -13 -13 -13 -13 -13 -13 -12 -12 -13 -13 -12 -13 -13 -13
-14 -14 -14 -14 -14 -14 -14 -14 -14 -14 -14 -14 -14 -14 -14 -14 -14 -14 -14 -14 -14 -13 -13 -13 -13 -13 -13 -13 -13 -13 -13 -13 -13 -13 -13 -13 -14 -14 -14 -14 -14 -14 -14 -14 -14 -14 -14 -14 -13 -13 -13 -13 -13 -13 -13 -13 -12 -13 -13 -13 -12 -13 -13
-14 -14 -14 -14 -14 -14 -14 -14 -14 -14 -14 -14 -14 -14 -14 -14 -14 -14 -14 -14 -14 -14 -14 -14 -14 -14 -14 -14 -14 -14 -14 -14 -14 -14 -14 -14 -14 -14 -14 -14 -14 -14 -14 -14 -14 -14 -14 -14 -14 -14 -14 -13 -13 -13 -13 -13 -13 -13 -13 -13 -13 -13 -13
-14 -14 -14 -14 -14 -14 -14 -14 -14 -14 -14 -14 -14 -14 -14 -14 -14 -14 -14 -14 -14 -14 -14 -14 -14 -14 -14 -14 -14 -14 -14 -14 -14 -14 -14 -14 -14 -14 -14 -14 -14 -14 -14 -14 -14 -14 -14 -14 -14 -14 -14 -14 -14 -14 -13 -13 -13 -13 -13 -13 -13 -13 -13
-14 -14 -14 -14 -14 -14 -14 -14 -14 -14 -14 -14 -14 -14 -14 -14 -14 -14 -14 -14 -14 -14 -14 -14 -14 -14 -14 -14 -14 -14 -14 -14 -14 -14 -14 -14 -14 -14 -14 -14 -14 -14 -14 -14 -14 -14 -14 -14 -14 -14 -14 -14 -14 -14 -14 -13 -13 -13 -13 -13 -13 -13 -13
-14 -14 -14 -14 -14 -14 -14 -14 -14 -14 -14 -14 -14 -14 -14 -14 -14 -14 -14 -14 -14 -14 -14 -14 -14 -14 -14 -14 -14 -14 -14 -14 -14 -14 -14 -14 -14 -14 -14 -14 -14 -14 -14 -14 -14 -14 -14 -14 -14 -14 -14 -14 -14 -14 -14 -14 -13 -13 -13 -13 -13 -13 -13
-14 -14 -14 -14 -14 -14 -14 -14 -14 -14 -14 -14 -14 -14 -14 -14 -14 -14 -14 -14 -14 -14 -14 -14 -14 -14 -14 -14 -14 -14 -14 -15 -15 -15 -15 -15 -15 -15 -15 -15 -15 -15 -15 -15 -15 -15 -15 -15 -15 -15 -14 -14 -14 -14 -14 -14 -14 -13 -13 -13 -13 -13 -13
-14 -14 -14 -14 -14 -14 -14 -14 -14 -14 -14 -14 -14 -14 -14 -14 -15 -15 -15 -15 -15 -15 -15 -15 -15 -15 -15 -15 -15 -15 -15 -15 -15 -15 -15 -15 -15 -15 -15 -15 -15 -15 -15 -15 -15 -15 -15 -15 -15 -15 -15 -15 -15 -15 -15 -15 -14 -14 -14 -14 -13 -13 -14
-14 -14 -14 -14 -14 -14 -14 -14 -14 -14 -14 -14 -14 -14 -14 -15 -15 -15 -15 -15 -15 -15 -15 -15 -15 -15 -15 -15 -15 -15 -15 -15 -15 -15 -15 -15 -15 -15 -15 -15 -15 -15 -15 -15 -15 -15 -15 -15 -15 -15 -15 -15 -15 -15 -15 -15 -15 -15 -15 -14 -14 -14 -14
-14 -14 -14 -14 -14 -14 -14 -14 -14 -14 -15 -14 -14 -14 -14 -15 -15 -15 -15 -15 -15 -15 -15 -15 -15 -15 -15 -15 -15 -15 -15 -15 -15 -15 -15 -16 -16 -16 -16 -16 -16 -16 -16 -15 -15 -15 -15 -15 -15 -15 -15 -15 -15 -15 -15 -15 -15 -15 -15 -15 -15 -15 -15
-14 -14 -14 -14 -14 -14 -14 -14 -14 -14 -14 -14 -14 -14 -15 -15 -15 -15 -15 -15 -15 -15 -16 -16 -15 -15 -15 -15 -16 -16 -16 -16 -16 -16 -16 -16 -16 -16 -16 -16 -16 -16 -16 -16 -16 -16 -15 -15 -15 -15 -15 -15 -15 -16 -16 -16 -16 -16 -15 -15 -15 -15 -15
-14 -14 -14 -14 -14 -14 -14 -14 -14 -14 -14 -14 -15 -15 -15 -15 -15 -15 -15 -16 -16 -16 -16 -16 -16 -16 -16 -16 -16 -16 -16 -16 -16 -16 -16 -16 -16 -16 -16 -16 -16 -16 -17 -17 -17 -16 -16 -16 -16 -16 -16 -16 -16 -16 -16 -16 -16 -16 -16 -16 -16 -16 -16
-14 -14 -14 -14 -14 -14 -14 -14 -14 -14 -14 -14 -15 -15 -15 -15 -15 -15 -16 -16 -16 -16 -16 -16 -16 -16 -16 -16 -16 -16 -16 -16 -17 -17 -17 -17 -17 -17 -17 -17 -17 -17 -17 -17 -17 -17 -17 -17 -17 -17 -17 -17 -17 -17 -17 -17 -17 -17 -17 -17 -17 -17 -17
-14 -14 -14 -14 -14 -14 -14 -14 -14 -14 -14 -14 -14 -14 -15 -15 -16 -16 -16 -16 -16 -16 -16 -16 -16 -16 -16 -16 -16 -17 -17 -17 -17 -17 -17 -17 -17 -17 -17 -17 -17 -17 -17 -17 -18 -18 -18 -18 -18 -18 -18 -18 -18 -18 -18 -17 -17 -17 -17 -17 -17 -17 -17
-14 -14 -14 -14 -14 -14 -14 -14 -14 -15 -15 -15 -15 -15 -15 -16 -16 -17 -17 -17 -17 -16 -16 -16 -16 -17 -17 -17 -17 -17 -17 -17 -17 -17 -17 -17 -18 -18 -18 -18 -18 -18 -18 -18 -18 -18 -18 -18 -18 -18 -18 -18 -18 -18 -18 -18 -18 -17 -17 -17 -17 -17 -17
-14 -14 -14 -14 -14 -14 -14 -15 -15 -15 -15 -15 -15 -15 -16 -16 -17 -17 -17 -17 -17 -17 -17 -17 -17 -17 -17 -17 -17 -17 -17 -17 -17 -18 -18 -18 -18 -18 -18 -18 -18 -18 -18 -18 -19 -19 -19 -19 -19 -19 -19 -19 -19 -19 -19 -19 -18 -18 -18 -18 -18 -18 -17
-14 -14 -14 -14 -14 -14 -14 -15 -15 -15 -15 -15 -15 -16 -16 -17 -17 -17 -17 -17 -17 -17 -17 -17 -17 -17 -17 -17 -17 -17 -18 -18 -18 -18 -18 -18 -18 -18 -18 -18 -19 -19 -19 -19 -19 -19 -19 -19 -19 -19 -19 -19 -19 -19 -19 -19 -19 -19 -18 -18 -18 -18 -18
-15 -15 -14 -14 -14 -15 -15 -15 -15 -15 -16 -16 -16 -16 -16 -17 -17 -17 -17 -17 -17 -17 -17 -17 -17 -17 -17 -18 -18 -18 -18 -18 -18 -18 -18 -19 -19 -19 -19 -19 -19 -19 -19 -19 -19 -19 -19 -19 -19 -19 -19 -19 -20 -20 -19 -19 -19 -19 -19 -19 -19 -19 -19
-15 -14 -15 -15 -14 -15 -15 -15 -15 -16 -16 -16 -16 -16 -17 -17 -17 -17 -17 -17 -17 -17 -18 -18 -18 -18 -18 -18 -18 -18 -18 -18 -19 -19 -19 -19 -19 -19 -19 -19 -19 -19 -19 -19 -19 -19 -20 -20 -20 -20 -20 -20 -20 -20 -19 -19 -19 -20 -20 -21 -21 -21 -21
-15 -14 -15 -15 -14 -14 -15 -15 -16 -16 -16 -16 -17 -17 -17 -17 -17 -17 -17 -18 -18 -18 -18 -18 -18 -18 -18 -18 -18 -18 -19 -19 -19 -19 -19 -19 -19 -20 -20 -20 -20 -20 -20 -20 -20 -20 -20 -20 -20 -20 -20 -20 -20 -20 -19 -19 -20 -21 -22 -22 -22 -22 -22
-15 -15 -15 -15 -15 -15 -15 -16 -16 -16 -16 -17 -17 -17 -17 -17 -17 -17 -18 -18 -18 -18 -18 -18 -18 -18 -18 -18 -19 -19 -19 -19 -19 -19 -20 -20 -20 -20 -20 -20 -20 -20 -20 -20 -20 -20 -20 -20 -20 -20 -20 -20 -20 -20 -19 -20 -21 -22 -22 -22 -22 -22 -22
-15 -15 -15 -15 -15 -15 -15 -16 -16 -16 -17 -17 -17 -17 -17 -17 -17 -18 -18 -18 -18 -18 -18 -18 -18 -18 -19 -19 -19 -19 -19 -19 -20 -20 -20 -20 -20 -20 -20 -20 -20 -20 -21 -21 -21 -21 -21 -21 -21 -21 -21 -21 -20 -20 -20 -21 -21 -22 -22 -22 -21 -21 -22
-15 -15 -15 -15 -15 -16 -16 -16 -16 -17 -17 -17 -17 -17 -17 -17 -18 -18 -18 -18 -18 -18 -18 -18 -19 -19 -19 -19 -19 -19 -20 -20 -20 -20 -20 -20 -20 -20 -20 -21 -21 -21 -21 -21 -21 -21 -21 -21 -21 -21 -21 -21 -21 -21 -21 -21 -22 -22 -22 -22 -21 -21 -22
-15 -15 -16 -16 -16 -16 -16 -17 -17 -17 -17 -17 -17 -17 -17 -18 -18 -18 -18 -18 -18 -18 -19 -19 -19 -19 -19 -19 -20 -20 -20 -20 -20 -20 -21 -21 -21 -21 -21 -21 -21 -21 -21 -21 -21 -21 -21 -21 -21 -21 -21 -21 -21 -21 -22 -22 -22 -22 -22 -22 -21 -21 -21
-16 -16 -16 -16 -16 -16 -17 -17 -17 -17 -17 -17 -17 -18 -18 -18 -18 -18 -18 -19 -19 -19 -19 -19 -19 -19 -19 -20 -20 -20 -20 -20 -21 -21 -21 -21 -21 -21 -21 -21 -21 -21 -21 -21 -21 -21 -21 -21 -22 -22 -22 -22 -22 -22 -22 -22 -22 -22 -22 -22 -22 -22 -21
-16 -16 -16 -16 -16 -17 -17 -17 -17 -17 -17 -17 -18 -18 -18 -18 -18 -19 -19 -19 -19 -19 -19 -19 -19 -20 -20 -20 -20 -20 -20 -21 -21 -21 -21 -21 -21 -21 -21 -21 -22 -22 -22 -21 -21 -22 -22 -22 -22 -22 -22 -22 -22 -22 -22 -23 -22 -22 -22 -22 -22 -22 -21
Height
5815 5817 5817 5819 5820 5821 5821 5822 5822 5822 5822 5822 5822 5821 5821 5820 5820 5819 5819 5818 5818 5817 5816 5815 5815 5814 5813 5813 5812 5811 5809 5808 5807 5806 5805 5804 5803 5801 5800 5798 5797 5796 5794 5793 5791 5790 5790 5790 5788 5786 5785 5784 5783 5782 5780 5779 5778 5777 5776 5774 5773 5772 5771
5814 5815 5816 5818 5819 5819 5820 5820 5821 5821 5821 5821 5820 5820 5819 5819 5818 5818 5817 5816 5816 5815 5814 5813 5812 5812 5811 5810 5809 5808 5807 5806 5805 5804 5802 5801 5800 5799 5798 5796 5795 5793 5792 5790 5789 5787 5786 5786 5785 5784 5782 5781 5780 5778 5777 5776 5775 5774 5773 5771 5770 5768 5768
5813 5814 5815 5816 5817 5818 5818 5819 5819 5820 5820 5819 5819 5818 5818 5817 5817 5816 5815 5814 5813 5812 5812 5811 5810 5809 5808 5807 5806 5805 5804 5803 5802 5800 5799 5798 5797 5796 5795 5794 5793 5791 5790 5788 5786 5785 5783 5782 5781 5781 5780 5778 5777 5776 5774 5772 5771 5770 5769 5768 5767 5765 5764
5811 5813 5814 5815 5816 5816 5817 5817 5818 5818 5818 5818 5817 5817 5816 5815 5815 5814 5813 5812 5811 5810 5809 5808 5808 5807 5806 5805 5804 5802 5801 5800 5799 5797 5796 5795 5794 5792 5791 5790 5789 5788 5787 5786 5784 5782 5781 5779 5778 5777 5776 5775 5774 5773 5770 5769 5768 5766 5765 5765 5764 5763 5761
5810 5811 5812 5813 5814 5815 5815 5816 5816 5816 5816 5816 5815 5814 5814 5813 5812 5812 5811 5810 5809 5808 5807 5806 5805 5804 5803 5802 5801 5800 5798 5797 5796 5795 5793 5792 5790 5789 5788 5786 5785 5784 5783 5781 5780 5779 5777 5776 5775 5774 5773 5771 5771 5770 5767 5766 5764 5763 5761 5760 5759 5759 5758
5809 5810 5811 5812 5812 5813 5814 5814 5814 5814 5814 5813 5813 5812 5812 5811 5810 5810 5809 5808 5807 5806 5805 5804 5803 5801 5800 5799 5798 5797 5796 5794 5793 5792 5790 5789 5787 5786 5784 5783 5781 5780 5778 5777 5776 5774 5773 5772 5770 5770 5769 5768 5767 5767 5765 5763 5761 5760 5758 5756 5755 5754 5754
5807 5808 5809 5810 5810 5811 5811 5811 5811 5811 5811 5811 5811 5810 5810 5809 5808 5808 5807 5806 5805 5803 5802 5801 5800 5799 5798 5796 5795 5794 5792 5791 5789 5788 5787 5785 5784 5782 5781 5779 5778 5777 5775 5774 5772 5770 5769 5768 5766 5765 5765 5764 5763 5762 5761 5759 5758 5757 5755 5753 5751 5750 5750
5805 5806 5807 5808 5808 5809 5809 5809 5809 5809 5809 5809 5809 5808 5808 5807 5806 5805 5804 5803 5802 5801 5800 5799 5797 5796 5795 5793 5792 5790 5789 5788 5786 5785 5783 5781 5780 5778 5777 5776 5774 5773 5771 5770 5768 5766 5765 5763 5762 5761 5760 5759 5759 5758 5757 5756 5754 5753 5751 5750 5748 5746 5745
5804 5805 5806 5806 5806 5807 5807 5807 5807 5807 5807 5807 5807 5806 5805 5805 5804 5803 5802 5801 5800 5798 5797 5796 5794 5793 5792 5790 5789 5787 5786 5784 5783 5781 5779 5778 5776 5774 5773 5772 5770 5769 5767 5766 5764 5763 5761 5759 5758 5756 5754 5753 5753 5753 5753 5753 5752 5749 5746 5745 5745 5743 5740
5802 5803 5803 5804 5804 5804 5805 5805 5805 5805 5805 5805 5804 5804 5803 5802 5801 5800 5800 5798 5797 5796 5794 5793 5792 5790 5789 5787 5786 5784 5783 5781 5779 5778 5776 5774 5773 5771 5769 5768 5767 5765 5763 5762 5760 5758 5757 5755 5753 5751 5750 5748 5746 5746 5747 5747 5748 5747 5743 5741 5740 5739 5736
5800 5800 5801 5801 5802 5802 5802 5803 5803 5803 5803 5802 5802 5801 5800 5800 5799 5798 5797 5795 5794 5793 5791 5790 5789 5787 5786 5784 5783 5781 5780 5778 5776 5775 5773 5771 5770 5768 5766 5764 5763 5761 5759 5757 5756 5754 5752 5751 5749 5747 5745 5743 5741 5740 5739 5740 5742 5742 5740 5737 5735 5734 5733
5797 5798 5799 5799 5800 5800 5800 5800 5800 5800 5800 5799 5799 5798 5797 5797 5796 5795 5794 5793 5791 5790 5789 5787 5786 5784 5783 5781 5780 5778 5776 5775 5773 5771 5770 5768 5766 5764 5762 5761 5759 5757 5755 5753 5751 5749 5748 5746 5744 5742 5740 5738 5736 5734 5733 5732 5734 5735 5734 5732 5731 5729 5727
5796 5796 5797 5797 5798 5798 5798 5798 5798 5798 5797 5797 5796 5795 5795 5794 5793 5792 5791 5790 5788 5787 5786 5784 5783 5781 5780 5778 5776 5775 5773 5771 5770 5768 5766 5764 5762 5760 5758 5756 5754 5753 5751 5749 5747 5745 5743 5741 5739 5737 5735 5733 5731 5728 5727 5725 5726 5727 5727 5725 5725 5723 5722
5794 5795 5795 5795 5795 5795 5795 5795 5795 5795 5794 5794 5794 5793 5792 5791 5790 5789 5788 5787 5785 5784 5783 5781 5780 5778 5776 5775 5773 5771 5770 5768 5766 5764 5762 5760 5758 5756 5754 5752 5750 5748 5746 5744 5742 5740 5738 5736 5734 5732 5729 5728 5725 5723 5721 5719 5719 5719 5720 5718 5717 5716 5715
5792 5792 5792 5793 5793 5793 5793 5792 5792 5792 5792 5791 5791 5790 5789 5788 5787 5786 5785 5784 5782 5781 5780 5778 5776 5775 5773 5771 5769 5768 5766 5764 5762 5760 5758 5756 5754 5751 5749 5747 5745 5743 5741 5739 5737 5735 5733 5730 5728 5726 5724 5722 5720 5717 5715 5713 5712 5712 5713 5712 5710 5709 5707
5790 5790 5790 5790 5790 5790 5790 5790 5790 5789 5789 5788 5788 5787 5786 5785 5784 5783 5782 5781 5779 5778 5776 5774 5773 5771 5769 5768 5766 5764 5762 5760 5758 5756 5754 5751 5749 5747 5745 5742 5740 5738 5735 5733 5731 5728 5726 5724 5722 5720 5717 5715 5713 5711 5709 5706 5705 5704 5704 5704 5704 5702 5701
5788 5788 5788 5788 5788 5788 5788 5788 5787 5787 5786 5785 5785 5784 5783 5782 5781 5780 5779 5777 5776 5774 5773 5771 5769 5768 5766 5764 5762 5760 5758 5756 5754 5752 5750 5747 5745 5742 5740 5737 5735 5732 5730 5727 5725 5722 5720 5717 5715 5713 5711 5708 5706 5704 5702 5700 5698 5696 5696 5696 5695 5694 5693
5785 5785 5786 5786 5786 5786 5785 5785 5784 5784 5783 5782 5782 5781 5780 5780 5778 5777 5776 5774 5773 5771 5769 5767 5766 5764 5762 5760 5758 5756 5754 5752 5750 5748 5745 5743 5740 5737 5735 5732 5729 5727 5724 5722 5719 5717 5714 5711 5709 5706 5704 5702 5699 5697 5694 5692 5690 5689 5687 5687 5686 5686 5685
5783 5783 5783 5783 5783 5783 5783 5782 5782 5781 5780 5779 5779 5778 5777 5776 5775 5774 5772 5771 5769 5767 5766 5764 5762 5760 5758 5757 5754 5752 5750 5748 5746 5743 5741 5738 5735 5732 5729 5726 5724 5721 5718 5715 5713 5711 5708 5705 5702 5700 5698 5695 5693 5690 5688 5685 5683 5681 5679 5678 5677 5677 5676
5780 5780 5780 5780 5780 5780 5780 5779 5779 5778 5777 5776 5776 5775 5774 5773 5772 5770 5769 5767 5765 5764 5762 5760 5758 5757 5755 5753 5750 5748 5746 5743 5741 5738 5736 5733 5730 5727 5724 5720 5717 5714 5711 5709 5706 5704 5702 5699 5696 5693 5691 5688 5686 5683 5681 5678 5676 5674 5671 5669 5668 5667 5667
5778 5778 5778 5778 5778 5777 5777 5776 5776 5775 5774 5773 5772 5772 5770 5769 5768 5766 5765 5763 5762 5760 5759 5757 5755 5753 5751 5748 5746 5744 5741 5739 5736 5733 5731 5728 5725 5722 5718 5715 5712 5708 5705 5702 5699 5696 5694 5692 5689 5685 5683 5680 5677 5675 5672 5670 5668 5665 5663 5661 5659 5658 5657
5776 5776 5776 5776 5775 5775 5774 5773 5772 5772 5771 5770 5769 5768 5767 5766 5764 5763 5761 5759 5758 5757 5755 5753 5751 5749 5747 5744 5742 5739 5737 5734 5732 5729 5726 5723 5720 5717 5714 5711 5707 5703 5699 5695 5692 5689 5685 5683 5680 5677 5674 5671 5669 5666 5663 5660 5658 5656 5654 5651 5649 5648 5647
5773 5773 5773 5773 5772 5772 5771 5770 5769 5768 5767 5766 5765 5764 5763 5762 5760 5759 5757 5756 5755 5754 5752 5750 5748 5745 5743 5741 5738 5736 5733 5730 5727 5725 5722 5719 5716 5713 5709 5706 5702 5698 5694 5690 5686 5682 5679 5675 5672 5668 5665 5662 5659 5656 5653 5651 5648 5646 5644 5641 5639 5637 5636
5770 5770 5769 5769 5769 5768 5767 5767 5766 5765 5764 5763 5761 5760 5759 5758 5756 5755 5754 5753 5752 5750 5748 5746 5744 5742 5739 5737 5734 5732 5729 5726 5723 5720 5718 5714 5711 5708 5704 5701 5697 5694 5690 5685 5681 5677 5673 5669 5665 5661 5657 5654 5650 5646 5643 5641 5638 5636 5634 5631 5629 5626 5625
5767 5766 5766 5766 5765 5765 5764 5763 5762 5761 5760 5759 5758 5757 5755 5754 5753 5752 5751 5750 5748 5746 5745 5743 5740 5738 5736 5733 5730 5728 5725 5722 5719 5716 5713 5710 5706 5703 5699 5695 5692 5689 5685 5681 5676 5672 5667 5663 5659 5655 5651 5647 5643 5639 5635 5631 5628 5626 5624 5622 5619 5616 5614
5764 5763 5763 5763 5762 5761 5760 5759 5758 5757 5757 5755 5754 5753 5752 5751 5749 5748 5747 5746 5744 5743 5741 5739 5737 5734 5732 5729 5726 5724 5721 5718 5715 5712 5709 5705 5702 5698 5695 5691 5687 5683 5680 5676 5671 5667 5663 5658 5654 5650 5645 5641 5637 5633 5628 5624 5620 5616 5613 5610 5608 5605 5602
5761 5760 5760 5759 5759 5758 5757 5756 5755 5754 5753 5751 5750 5749 5748 5747 5746 5745 5744 5742 5740 5739 5737 5735 5733 5730 5728 5725 5722 5720 5717 5714 5711 5708 5704 5701 5697 5694 5690 5687 5683 5679 5674 5670 5666 5662 5658 5654 5650 5645 5641 5636 5631 5627 5622 5617 5612 5608 5604 5600 5597 5594 5591
5757 5757 5757 5756 5755 5754 5753 5752 5751 5750 5749 5747 5746 5745 5744 5743 5743 5741 5740 5738 5737 5735 5733 5731 5729 5726 5724 5721 5718 5716 5713 5710 5707 5704 5700 5697 5693 5690 5686 5682 5678 5674 5670 5666 5662 5658 5654 5650 5645 5640 5636 5631 5626 5621 5616 5611 5606 5601 5596 5591 5587 5583 5580
5754 5753 5753 5752 5751 5750 5748 5747 5747 5745 5744 5743 5743 5742 5741 5740 5739 5738 5737 5735 5733 5731 5729 5727 5725 5722 5720 5717 5714 5712 5709 5706 5703 5700 5696 5692 5689 5685 5681 5677 5673 5669 5665 5661 5657 5653 5649 5645 5641 5636 5631 5626 5621 5615 5610 5604 5598 5592 5587 5582 5577 5573 5569
5750 5750 5749 5748 5747 5745 5744 5743 5743 5742 5741 5740 5739 5739 5738 5737 5736 5735 5733 5731 5730 5728 5726 5724 5721 5719 5716 5713 5711 5708 5705 5702 5699 5695 5692 5688 5684 5680 5677 5673 5669 5665 5661 5657 5654 5650 5646 5642 5637 5632 5627 5622 5616 5611 5605 5598 5591 5585 5580 5575 5569 5566 5563
5747 5746 5745 5744 5743 5741 5740 5739 5739 5739 5738 5737 5736 5735 5734 5734 5732 5731 5729 5728 5726 5724 5722 5720 5718 5715 5712 5710 5707 5704 5701 5698 5695 5691 5688 5684 5681 5677 5673 5669 5665 5661 5658 5654 5650 5646 5642 5638 5633 5629 5624 5618 5612 5606 5600 5594 5587 5581 5577 5572 5567 5563 5559
5743 5742 5741 5740 5738 5737 5736 5736 5735 5735 5734 5734 5733 5732 5731 5730 5729 5727 5726 5724 5722 5721 5719 5717 5714 5712 5709 5706 5703 5700 5697 5694 5691 5687 5684 5680 5677 5673 5669 5666 5662 5658 5654 5651 5647 5643 5639 5634 5630 5625 5620 5614 5608 5602 5595 5589 5583 5579 5575 5571 5566 5562 5558
5739 5738 5737 5735 5734 5734 5733 5733 5732 5732 5731 5731 5730 5729 5728 5726 5725 5724 5722 5721 5719 5717 5715 5713 5711 5708 5706 5703 5700 5697 5694 5690 5687 5684 5681 5677 5674 5670 5667 5663 5659 5656 5652 5648 5644 5640 5636 5631 5626 5621 5616 5610 5604 5597 5590 5584 5579 5576 5572 5568 5565 5561 5556
5735 5734 5733 5732 5731 5731 5730 5730 5729 5729 5728 5728 5727 5725 5724 5723 5722 5720 5719 5717 5716 5714 5712 5710 5708 5705 5702 5699 5696 5693 5690 5687 5684 5681 5678 5675 5671 5668 5664 5661 5657 5654 5650 5646 5642 5638 5633 5628 5623 5618 5612 5607 5601 5594 5587 5582 5578 5575 5571 5567 5563 5560 5555
5731 5730 5730 5729 5728 5728 5727 5727 5727 5726 5726 5725 5723 5722 5721 5720 5719 5717 5716 5714 5713 5711 5709 5706 5704 5701 5699 5696 5693 5690 5687 5685 5682 5679 5676 5672 5669 5666 5662 5659 5655 5652 5648 5644 5640 5636 5632 5627 5622 5616 5611 5605 5599 5593 5586 5581 5577 5574 5570 5566 5562 5558 5555
5728 5728 5727 5726 5726 5725 5725 5724 5724 5723 5722 5721 5720 5719 5718 5717 5716 5715 5713 5711 5709 5707 5705 5703 5700 5698 5695 5693 5690 5688 5685 5682 5679 5676 5673 5670 5667 5663 5660 5657 5653 5650 5646 5643 5639 5634 5630 5625 5620 5615 5610 5604 5598 5592 5586 5581 5576 5573 5570 5567 5562 5558 5555
5725 5725 5724 5724 5723 5723 5722 5722 5721 5720 5719 5718 5717 5716 5715 5714 5713 5712 5710 5708 5706 5704 5702 5700 5697 5695 5692 5690 5687 5685 5682 5680 5677 5674 5671 5668 5665 5661 5658 5655 5651 5648 5645 5641 5637 5633 5628 5624 5619 5614 5609 5604 5599 5593 5588 5582 5577 5573 5570 5567 5563 5559 5555
Wind_Speed
12 9 9 9 9 10 10 11 12 13 13 13 12 12 12 13 13 13 14 14 15 16 17 19 20 21 21 22 22 23 23 24 24 24 25 25 25 26 26 26 26 27 27 27 27 27 25 24 25 26 26 26 26 25 25 25 24 24 25 26 27 26 25
9 9 10 10 10 10 10 12 13 13 14 14 13 13 13 13 13 14 15 15 16 17 19 20 22 23 24 24 24 24 25 25 26 26 26 26 26 27 27 27 28 28 28 28 28 28 28 26 25 25 26 27 27 27 27 27 26 25 25 25 27 28 27
10 10 10 10 10 10 11 12 13 14 15 15 15 14 14 14 15 16 17 18 18 19 20 22 23 24 25 26 26 26 27 27 28 28 29 29 28 29 28 28 29 29 29 29 29 29 29 29 28 27 27 27 27 28 29 29 28 28 27 26 26 27 28
10 10 10 11 11 11 12 13 14 15 15 16 16 16 16 17 17 18 19 20 20 21 22 23 25 26 27 27 27 28 28 28 29 29 30 30 30 30 31 31 30 31 30 30 30 30 30 30 30 29 29 29 29 29 31 31 31 31 30 29 28 27 28
11 11 11 12 12 13 14 15 16 16 16 17 17 17 18 18 19 20 20 21 22 23 24 25 27 27 28 29 29 29 29 30 30 30 31 31 32 32 32 33 33 33 33 33 33 33 32 32 32 31 31 31 30 30 31 32 32 33 33 32 31 30 29
12 12 13 14 15 15 16 16 17 17 17 17 17 18 19 19 20 21 22 23 24 25 26 27 28 29 30 30 31 31 31 31 31 32 32 32 33 33 33 34 35 35 36 36 36 35 35 35 34 34 33 33 32 31 31 33 33 33 34 35 35 33 32
13 13 14 15 16 16 17 17 17 16 16 17 17 18 19 20 21 22 23 24 25 26 28 29 30 31 32 32 32 33 33 33 33 33 33 34 34 35 35 35 36 36 37 37 37 37 37 37 37 36 35 35 34 33 33 34 34 34 34 36 37 36 35
14 15 15 16 17 17 17 16 16 16 16 17 18 19 21 22 22 23 24 25 26 28 29 30 31 32 32 33 33 34 34 34 34 34 35 35 35 36 36 36 37 37 37 37 38 38 38 38 38 38 38 36 35 35 34 35 35 36 36 36 37 38 38
15 16 17 17 17 16 16 16 16 17 17 18 19 20 21 22 23 24 25 26 27 28 29 30 31 32 33 33 34 34 34 35 35 35 36 36 36 36 36 36 36 36 36 37 37 38 38 39 39 40 40 39 38 36 35 35 35 36 38 38 37 38 40
17 17 17 17 16 15 16 16 17 18 19 20 20 21 22 22 23 24 24 26 27 28 29 30 31 33 33 34 34 34 35 35 36 36 36 36 35 35 36 35 36 36 36 37 38 38 38 39 39 40 40 41 41 40 38 36 35 35 38 40 39 39 40
18 18 17 16 15 15 16 17 18 19 19 20 20 21 21 22 22 23 25 26 27 28 30 31 32 33 34 35 35 35 36 36 36 36 36 35 35 35 35 36 36 37 37 38 39 39 40 40 41 41 42 42 43 43 42 41 38 36 37 39 40 40 41
18 17 16 16 16 16 17 17 18 19 19 20 20 21 21 22 22 24 25 27 28 30 31 32 33 34 35 35 35 36 36 36 36 36 36 35 35 36 36 37 38 38 39 40 40 41 42 42 43 43 44 44 45 46 46 45 43 40 39 39 40 42 42
17 17 17 17 17 17 17 18 18 19 19 20 21 22 22 22 23 24 26 27 29 30 32 33 33 34 34 35 35 36 36 36 36 35 36 36 36 37 38 39 39 40 40 41 42 42 43 43 44 45 45 45 46 47 47 48 46 44 43 42 42 42 44
18 18 18 18 17 18 18 19 20 20 21 22 22 23 23 23 24 25 27 28 30 31 32 32 33 33 34 34 34 35 34 35 35 35 36 37 37 38 39 39 40 40 41 41 42 42 43 43 44 45 45 46 46 47 48 49 48 47 45 45 45 44 45
19 19 19 19 18 19 20 20 21 22 23 23 24 24 24 25 26 27 28 30 31 32 32 33 33 34 34 34 34 34 35 35 36 36 37 38 38 39 39 40 40 41 42 42 43 43 43 44 44 45 45 46 46 47 49 49 49 49 47 46 46 46 47
19 19 19 20 20 21 22 22 23 23 24 25 25 25 26 26 27 28 30 31 32 33 33 34 35 35 36 36 35 35 36 37 37 38 38 39 39 40 40 41 42 42 43 44 44 45 46 46 46 46 47 47 47 48 49 50 50 50 49 48 47 47 48
20 20 21 22 22 23 23 24 24 25 26 26 27 27 28 28 29 30 31 33 33 34 35 36 36 37 37 37 37 37 38 39 39 39 40 40 40 41 42 43 43 44 45 46 46 47 47 47 48 48 48 49 49 49 50 50 51 51 51 50 49 48 49
20 21 21 22 22 23 24 24 25 26 27 28 29 29 29 30 31 32 33 34 35 35 36 37 38 38 38 38 38 39 39 40 40 41 41 41 42 43 43 44 45 46 46 47 47 47 47 48 48 49 49 49 50 50 51 51 52 52 52 52 51 50 50
21 21 21 21 22 23 24 25 25 27 28 29 30 30 31 32 33 34 35 35 36 36 37 38 38 39 38 38 39 40 41 41 42 42 42 43 44 45 46 46 47 47 48 48 48 48 48 48 48 48 49 49 50 50 51 52 52 53 54 54 53 52 52
23 23 23 23 23 24 25 26 27 28 29 30 31 31 33 34 35 36 36 37 37 37 38 38 39 39 39 39 40 41 42 42 43 43 44 45 46 47 48 48 49 49 49 49 49 49 48 48 49 50 50 50 51 51 52 52 53 54 54 55 55 55 54
24 24 24 24 25 25 26 27 28 28 29 31 32 33 34 35 37 38 39 39 38 38 39 39 39 39 39 40 41 42 43 43 44 45 46 47 48 48 49 49 49 49 49 50 50 50 50 50 51 51 52 52 53 53 53 54 54 54 55 55 55 55 55
23 23 24 24 25 26 27 28 29 30 31 32 34 35 36 37 38 40 41 40 40 39 39 39 39 39 40 41 42 42 43 44 45 46 47 48 48 48 48 48 48 49 49 50 51 52 53 53 53 54 54 55 55 55 55 55 55 55 55 55 55 55 55
22 22 23 24 25 27 29 30 31 32 33 34 36 37 38 39 40 42 42 41 41 40 40 39 39 40 40 41 41 42 43 44 45 46 47 48 48 48 48 48 48 49 50 51 52 53 54 54 55 56 56 56 57 56 56 55 55 55 55 55 56 55 55
22 23 24 26 28 29 31 32 33 34 35 36 37 38 39 40 42 43 44 43 42 42 41 40 40 40 40 41 41 42 43 44 46 47 47 47 47 47 47 48 49 50 51 52 52 53 54 54 55 55 56 56 57 57 57 57 56 56 56 56 56 56 56
23 24 26 28 29 31 32 34 34 34 35 36 37 38 40 42 43 44 44 43 43 42 40 39 40 40 40 41 41 42 44 45 46 47 47 47 47 47 48 49 50 51 51 52 52 52 53 53 54 54 54 55 55 56 57 57 57 57 57 57 57 58 58
26 27 28 30 31 32 33 34 34 35 35 36 37 39 41 42 44 44 44 43 42 40 39 38 39 40 40 41 42 43 44 45 46 46 45 46 47 48 49 50 51 51 51 51 51 51 51 52 52 52 53 53 54 55 56 57 58 59 59 59 59 59 59
28 29 31 32 33 35 35 35 35 36 36 37 37 38 40 41 42 43 42 40 39 37 37 38 39 39 40 41 42 44 44 44 44 44 45 46 47 48 49 50 50 50 50 50 50 50 50 50 50 50 51 51 53 54 55 57 58 58 59 60 60 60 60
30 31 32 34 35 36 37 37 37 37 37 37 36 36 37 39 40 39 38 36 35 35 36 37 37 39 40 42 43 43 43 43 43 44 45 46 48 48 49 49 49 49 48 48 48 48 48 48 48 49 50 52 53 54 54 55 55 57 58 59 59 58 58
30 31 32 34 36 37 38 38 36 35 34 33 32 33 35 36 36 35 34 34 34 34 35 36 37 39 40 42 42 42 42 42 42 44 45 47 47 48 48 48 47 47 47 46 46 46 46 46 47 48 50 51 51 51 52 52 54 55 55 55 55 53 50
30 31 32 33 33 33 34 33 31 29 29 30 31 32 33 33 33 32 32 33 33 34 35 36 38 40 41 41 41 40 41 42 43 44 46 46 46 46 46 46 45 45 45 44 44 44 44 45 46 47 48 48 49 49 50 51 52 50 48 48 47 42 36
29 30 31 31 30 28 28 28 28 28 29 30 30 30 31 31 31 31 31 32 32 33 35 37 38 40 40 39 39 40 41 42 43 44 45 45 45 44 44 44 43 43 43 42 42 42 43 44 45 46 45 46 47 48 49 50 46 40 38 40 37 33 32
28 29 30 29 27 25 24 25 26 27 28 29 28 29 29 29 29 30 30 31 33 34 36 38 38 38 38 38 38 39 41 42 43 43 43 43 42 42 42 42 42 41 40 40 40 41 43 44 44 44 45 45 46 48 50 48 40 33 33 33 28 28 33
27 28 28 27 24 22 22 23 23 24 26 26 27 27 27 28 28 29 30 32 33 35 36 37 37 36 36 37 38 39 41 41 41 41 40 40 40 40 40 40 39 39 38 38 40 41 42 43 43 44 45 46 47 50 50 45 35 31 34 32 27 29 34
27 27 27 25 23 22 22 22 23 24 25 25 26 27 27 28 29 29 30 32 34 35 36 35 35 35 36 37 38 39 40 40 39 39 38 38 38 38 38 38 37 36 36 37 39 40 41 42 43 44 45 46 48 50 49 41 33 32 34 32 30 31 33
27 27 26 25 23 22 22 23 23 24 25 26 26 27 27 28 28 29 31 33 34 34 34 33 34 34 36 37 38 38 38 38 37 36 36 35 36 36 36 36 35 35 35 36 38 39 39 40 41 43 45 46 48 50 48 39 32 31 33 32 31 30 29
26 27 26 25 23 22 22 23 24 25 25 26 26 26 27 27 29 30 32 32 33 32 32 33 34 35 36 37 37 37 36 35 34 34 33 34 35 35 34 34 34 34 35 36 37 38 39 40 40 41 43 45 47 49 49 41 31 28 29 31 32 30 27
25 25 25 24 23 22 23 23 24 25 25 25 25 26 27 28 29 30 31 31 31 31 31 33 34 35 36 36 35 35 34 33 32 32 32 33 33 33 33 32 32 33 34 35 36 37 38 39 39 40 41 43 44 46 48 44 34 26 25 27 31 30 27
Wind_Direction
219 232 246 253 258 263 269 272 274 277 279 284 287 289 292 294 298 301 303 305 305 305 305 304 303 303 303 303 304 305 306 307 307 308 309 310 310 310 310 310 310 311 311 310 309 309 309 307 307 308 308 308 308 309 309 309 310 309 309 308 306 305 305
240 251 250 253 260 263 267 270 273 277 280 282 284 287 289 291 294 296 297 298 298 299 299 299 300 300 300 301 302 303 304 304 304 305 306 307 307 307 308 308 308 308 308 307 307 307 308 307 307 306 306 306 307 307 306 306 307 307 308 308 307 307 306
257 253 252 255 259 262 267 270 273 276 279 280 281 282 284 286 289 289 291 292 293 295 296 296 297 298 299 300 302 303 304 304 304 304 304 304 304 304 304 304 304 304 304 304 304 304 305 306 306 306 305 305 305 305 304 304 304 304 305 305 305 306 306
257 255 254 257 259 262 265 268 272 275 277 279 280 282 284 285 286 288 289 291 293 294 294 295 296 297 298 299 301 302 302 303 302 302 302 302 302 302 301 301 301 300 300 300 300 301 301 301 302 303 303 303 304 304 303 303 303 302 302 302 301 302 303
256 255 255 257 259 261 264 267 271 275 279 282 283 284 285 286 287 288 289 291 293 294 295 296 296 297 298 299 300 300 300 300 300 300 300 299 300 300 300 300 299 299 299 299 299 299 298 298 298 299 299 300 301 302 302 302 302 302 301 300 299 299 299
250 250 253 256 258 261 265 268 272 276 279 283 284 284 285 286 287 288 290 292 293 295 296 297 297 298 298 299 299 299 299 299 299 299 299 298 298 298 298 298 298 299 299 299 299 298 297 297 297 297 297 297 297 298 298 299 299 300 299 299 299 298 297
245 247 250 254 258 261 264 268 272 276 279 281 282 284 285 286 288 290 291 293 295 296 297 297 298 298 299 300 300 300 300 300 300 299 299 298 298 298 298 298 298 298 298 298 298 297 297 296 296 295 295 295 295 295 296 296 297 296 296 297 297 297 297
248 250 253 256 259 262 266 269 273 276 278 280 282 284 286 288 290 292 294 296 296 297 297 298 298 299 300 300 300 301 301 301 301 301 300 300 299 299 298 298 298 298 297 297 296 296 296 296 296 295 295 294 293 293 293 294 295 295 294 294 294 296 296
252 254 256 257 260 264 269 272 276 279 280 282 284 286 289 291 293 294 295 296 296 296 297 298 299 300 300 301 301 302 302 302 302 302 302 301 301 300 299 299 298 298 297 297 296 296 296 296 296 296 295 295 293 292 291 290 291 292 292 292 292 292 292
252 254 256 259 264 268 273 277 279 281 281 283 285 287 289 292 293 295 295 294 295 295 297 298 299 301 302 302 303 303 303 303 303 303 303 302 301 301 300 300 300 299 299 299 298 298 297 297 297 296 295 295 295 294 292 290 288 288 289 290 289 289 288
254 256 259 262 267 272 276 279 279 280 282 283 285 287 290 292 294 294 294 294 295 296 298 300 301 302 303 304 304 304 303 303 303 303 303 302 302 301 301 302 302 302 301 300 300 299 299 298 297 297 296 296 295 294 294 292 290 287 285 285 286 286 285
255 257 261 264 270 275 277 279 280 281 284 285 287 289 291 293 294 294 294 294 296 298 300 302 303 305 305 305 305 304 304 304 304 304 304 303 304 303 303 303 303 303 302 301 301 300 300 299 298 297 296 296 295 295 294 293 292 289 286 284 283 283 283
257 259 263 267 271 274 276 279 281 283 285 286 288 290 292 294 294 294 294 295 297 299 302 304 305 306 306 306 305 304 304 304 304 305 305 305 305 305 305 304 304 303 302 302 301 300 300 299 298 297 296 295 295 294 294 293 293 291 288 286 283 281 281
258 261 264 268 271 273 275 278 281 284 286 287 289 291 293 294 294 295 295 296 299 301 303 305 305 306 306 305 304 304 304 305 306 306 306 306 306 305 305 305 304 303 302 301 301 300 299 298 297 296 295 295 294 293 293 292 292 291 289 287 285 283 280
257 260 264 268 270 272 274 278 282 285 287 288 290 292 293 295 295 295 296 297 300 302 304 305 305 306 306 305 305 305 306 308 308 308 307 307 306 306 305 305 304 303 302 302 301 300 299 298 297 295 295 294 293 292 291 291 290 289 288 286 284 283 282
259 262 266 269 271 274 277 280 283 285 287 289 290 292 294 295 296 296 297 298 300 302 304 306 307 308 307 306 306 308 309 310 309 308 308 307 306 306 305 305 304 303 303 302 302 301 300 299 297 296 295 294 292 291 290 289 289 288 287 285 283 282 280
266 268 269 271 273 276 278 280 282 285 287 289 291 293 294 295 296 296 297 299 301 303 305 307 308 308 308 307 308 310 311 310 309 308 307 307 306 306 306 305 305 304 304 303 302 302 301 300 299 297 296 295 294 293 291 290 289 288 286 285 283 282 280
268 270 271 272 273 276 278 280 283 285 287 289 291 293 294 295 296 296 298 299 301 302 304 306 308 308 308 308 309 311 311 310 308 308 307 307 307 307 307 306 306 305 304 303 302 301 301 299 299 298 297 296 295 294 293 292 290 289 287 285 284 283 281
267 269 270 272 273 275 278 280 282 284 286 288 290 292 294 295 296 297 298 299 300 301 303 305 307 307 307 308 310 310 310 309 308 308 308 308 308 308 308 308 307 306 305 304 302 301 301 300 299 298 297 296 295 294 293 292 291 290 288 287 285 283 281
264 266 268 270 271 274 276 278 281 282 284 287 289 292 294 294 295 295 296 297 298 300 302 305 306 307 307 309 310 310 310 309 309 309 309 310 310 310 309 308 307 306 305 304 303 302 301 301 300 299 298 297 295 294 293 291 290 289 288 287 285 284 282
262 264 267 269 271 273 275 277 280 282 285 288 290 291 292 293 293 294 294 295 297 299 302 304 306 307 309 311 311 310 310 309 310 310 311 311 311 310 309 308 307 307 306 306 305 304 303 302 302 301 300 299 298 297 295 293 291 290 288 286 285 283 282
261 264 266 269 272 274 276 278 281 283 285 287 288 289 290 291 292 292 292 294 296 299 302 304 306 308 310 311 310 309 309 309 310 310 311 310 309 309 308 308 308 308 309 308 308 307 306 305 304 303 302 301 300 299 297 296 294 292 290 289 287 285 283
262 266 270 273 276 278 280 282 283 284 286 287 288 289 290 291 291 290 291 293 296 299 301 302 305 307 308 308 308 308 308 309 310 310 310 309 309 308 309 309 310 310 311 312 311 311 310 309 308 306 305 303 302 301 300 299 298 296 294 292 290 288 285
269 274 277 280 281 283 284 286 286 287 287 288 289 290 290 290 289 289 291 293 296 299 300 301 304 306 307 307 307 308 309 310 311 310 310 309 309 310 311 312 312 313 313 314 313 313 313 312 312 311 310 308 307 306 304 303 301 299 297 295 293 291 288
276 280 281 282 283 285 286 286 286 287 288 289 290 291 291 290 289 290 292 294 297 299 299 300 303 305 305 306 307 308 310 311 311 310 310 311 311 313 314 314 315 315 315 315 315 315 315 315 314 313 312 311 309 307 306 304 302 300 298 295 293 291 288
279 281 282 283 284 285 285 285 285 287 289 291 290 290 290 290 290 291 293 295 297 297 297 300 303 304 305 306 308 309 310 310 310 311 311 313 314 315 315 316 316 316 316 316 316 316 316 315 314 313 312 311 310 309 307 306 304 302 300 298 295 293 290
279 280 282 284 284 284 285 286 286 288 290 289 288 289 290 291 292 294 295 296 296 296 298 301 303 304 305 307 309 310 310 311 311 312 313 314 315 316 316 316 316 317 317 317 317 317 316 315 314 314 313 313 312 311 310 309 307 305 303 302 299 297 294
280 281 283 283 284 285 287 287 288 288 288 288 288 289 291 293 294 296 296 296 295 297 300 302 303 305 307 308 309 310 310 311 312 314 315 316 317 317 317 317 317 318 319 319 318 318 317 317 317 316 316 315 314 313 311 310 308 307 305 303 301 298 295
283 284 285 286 287 288 287 286 288 289 288 288 289 292 293 294 295 295 294 295 296 299 301 303 305 306 308 309 310 310 311 313 315 316 317 317 317 317 317 318 319 319 320 320 320 320 320 320 320 319 318 317 316 315 314 313 313 312 310 308 306 304 302
286 287 288 289 291 291 288 285 286 289 290 290 291 292 292 292 292 292 293 296 299 302 303 305 306 308 309 309 310 312 314 315 316 317 317 317 318 318 319 320 320 321 322 322 323 323 323 323 322 321 320 320 319 319 319 321 320 317 315 315 314 314 316
288 288 289 290 292 294 291 285 283 286 288 288 289 289 289 289 290 293 297 300 302 303 305 306 307 308 309 310 312 314 316 317 318 318 318 318 318 319 320 321 323 324 325 325 326 326 326 325 324 324 324 324 324 325 327 328 325 319 318 320 319 322 328
288 289 291 292 292 289 285 280 279 281 283 284 285 286 287 290 293 297 300 302 303 304 305 306 307 308 310 312 314 316 317 318 318 318 318 319 319 321 322 324 326 327 327 328 328 328 329 328 328 328 329 330 331 332 334 335 331 323 323 323 319 322 330
289 291 293 294 292 285 280 278 279 280 281 282 284 287 290 295 298 300 301 302 304 305 306 306 308 310 313 315 316 318 318 318 318 318 318 320 321 323 325 327 328 329 329 330 331 332 332 333 333 334 335 336 338 341 342 341 337 332 333 332 324 324 332
291 292 293 292 289 285 282 282 282 282 283 285 288 292 296 298 300 301 302 303 304 305 305 308 310 313 316 317 318 319 319 318 318 318 319 321 323 325 327 329 330 331 332 333 335 335 336 337 338 339 341 343 346 348 348 344 340 340 342 342 337 333 337
291 290 290 288 287 285 285 285 285 286 288 290 293 296 298 299 300 301 303 303 304 305 307 311 314 316 318 319 319 318 317 317 317 319 321 324 326 328 329 331 331 333 335 336 337 338 340 341 342 344 346 348 351 353 353 349 343 343 346 347 347 344 342
288 287 287 286 286 286 286 286 287 288 290 292 295 296 297 299 300 302 302 303 305 308 311 314 317 319 319 318 318 317 316 317 319 321 324 326 329 330 331 333 334 336 337 337 339 342 344 345 346 348 350 352 353 356 358 356 350 346 345 347 351 351 347
285 285 285 285 286 286 286 286 287 289 291 293 295 297 298 300 301 301 303 305 308 311 315 317 318 319 317 317 316 316 317 319 321 324 327 329 331 332 334 335 336 337 338 340 342 345 347 348 349 351 353 355 356 358 1 2 358 350 345 346 350 353 356